This demonstration page uses our WeatherBlox Daily Observations layout. Learn more.

Left ArrowRight Arrow

40.92945, -100.16068

Hourly Observations for February 14, 2016

Temp ( °F °C ) Dew Point ( °F °C ) Humidity (%) Winds ( mph kmh ) Pressure ( in mb ) Visibility ( mi km ) Precip ( " mm )
12:15 am 00:15 Partly Cloudy 25 -4 17 -8.5 71 71 WSW 7 11 30.15 1021 10 16 N/A
12:35 am 00:35 Mostly Cloudy 26 -3.1 18 -7.7 71 71 WSW 9 15 30.15 1021 10 16 N/A
12:55 am 00:55 Cloudy 28 -2.2 19 -7.1 69 69 WSW 8 13 30.12 1020 10 16 N/A
1:15 am 01:15 Mostly Cloudy 30 -1.3 22 -5.8 72 72 WSW 8 13 30.09 1019 10 16 N/A
1:35 am 01:35 Partly Cloudy 30 -1.3 23 -5.2 75 75 WSW 8 13 30.09 1019 10 16 N/A
1:55 am 01:55 Clear 28 -2 22 -5.4 78 78 W 9 15 30.09 1019 10 16 N/A
2:15 am 02:15 Clear 28 -2.1 23 -5 81 81 W 9 15 30.06 1018 10 16 N/A
2:35 am 02:35 Clear 28 -2.5 23 -5.1 83 83 W 7 11 30.06 1018 10 16 N/A
2:55 am 02:55 Clear 26 -3.1 23 -5.2 86 86 WSW 5 7 30.09 1019 10 16 N/A
3:15 am 03:15 Clear 26 -3.5 22 -5.5 86 86 WNW 6 9 30.03 1017 10 16 N/A
3:35 am 03:35 Clear 24 -4.2 22 -5.7 89 89 WNW 9 15 30.06 1018 7 11 N/A
3:55 am 03:55 Clear 25 -3.8 23 -5 91 91 WNW 10 17 30.06 1018 7 11 N/A
4:15 am 04:15 Clear 32 0.2 28 -2.5 82 82 WNW 13 20 30.00 1016 10 16 N/A
4:35 am 04:35 Clear 34 1 28 -2.3 79 79 WNW 15 24 30.00 1016 10 16 N/A
4:55 am 04:55 Clear 34 1.1 28 -2.4 78 78 WNW 14 22 30.00 1016 10 16 N/A
5:15 am 05:15 Clear 34 0.9 28 -2.5 78 78 WNW 12 19 30.00 1016 10 16 N/A
5:35 am 05:35 Clear 32 0.1 27 -2.9 80 80 WNW 9 15 30.00 1016 10 16 N/A
5:55 am 05:55 Clear 32 undefined 27 -3 80 80 W 10 17 30.00 1016 10 16 N/A
6:15 am 06:15 Clear 33 0.6 27 -3 77 77 W 9 15 30.00 1016 10 16 N/A
6:35 am 06:35 Clear 33 0.5 27 -2.9 78 78 W 10 17 30.00 1016 10 16 N/A
6:55 am 06:55 Clear 32 0.1 26 -3.2 79 79 W 12 19 30.00 1016 10 16 N/A
7:15 am 07:15 Clear 32 -0.1 26 -3.5 78 78 W 13 20 30.00 1016 10 16 N/A
7:35 am 07:35 Sunny 31 -0.3 26 -3.5 79 79 WNW 12 19 30.00 1016 10 16 N/A
7:55 am 07:55 Sunny 32 0.1 26 -3.3 78 78 WNW 12 19 30.00 1016 10 16 N/A
8:15 am 08:15 Sunny 33 0.7 27 -2.9 77 77 WNW 10 17 30.00 1016 10 16 N/A
8:35 am 08:35 Sunny 35 1.5 28 -2.5 75 75 WNW 9 15 30.00 1016 10 16 N/A
8:55 am 08:55 Sunny 34 1.2 27 -2.8 75 75 WNW 7 11 30.00 1016 10 16 N/A
9:15 am 09:15 Sunny 37 2.5 28 -2.3 71 71 WNW 10 17 29.94 1014 10 16 N/A
9:35 am 09:35 Sunny 38 3.1 28 -2.3 68 68 NNW 7 11 29.94 1014 10 16 N/A
9:55 am 09:55 Sunny 38 3.5 28 -2 68 68 WNW 9 15 29.94 1014 10 16 N/A
10:15 am 10:15 Sunny 39 4 29 -1.9 66 66 WNW 14 22 29.94 1014 10 16 N/A
10:35 am 10:35 Sunny 41 4.8 29 -1.7 63 63 WNW 13 20 29.94 1014 10 16 N/A
10:55 am 10:55 Sunny 42 5.5 28 -2.1 58 58 WNW 10 17 29.91 1013 10 16 N/A
11:15 am 11:15 Sunny 42 5.8 28 -2.3 56 56 WNW 9 15 29.88 1012 10 16 N/A
11:35 am 11:35 Sunny 43 6.1 29 -1.8 57 57 WNW 12 19 29.91 1013 10 16 N/A
11:55 am 11:55 Sunny 44 6.4 29 -1.7 57 57 WNW 12 19 29.91 1013 10 16 N/A
12:15 pm 12:15 Sunny 44 6.7 29 -1.4 57 57 WNW 8 13 29.91 1013 10 16 N/A
12:35 pm 12:35 Sunny 47 8.1 30 -1.2 52 52 W 9 15 29.88 1012 10 16 N/A
12:55 pm 12:55 Sunny 47 8.5 29 -1.6 49 49 W 9 15 29.85 1011 10 16 N/A
1:15 pm 13:15 Sunny 48 8.9 29 -1.5 48 48 W 9 15 29.85 1011 10 16 N/A
1:35 pm 13:35 Sunny 48 8.9 29 -1.7 48 48 W 7 11 29.83 1010 10 16 N/A
1:55 pm 13:55 Mostly Cloudy 48 8.8 28 -2.5 45 45 WNW 7 11 29.83 1010 10 16 N/A
2:15 pm 14:15 Mostly Cloudy 48 8.8 29 -1.9 47 47 WNW 7 11 29.83 1010 10 16 N/A
2:35 pm 14:35 Mostly Cloudy 49 9.6 29 -1.8 45 45 W 7 11 29.83 1010 10 16 N/A
2:55 pm 14:55 Partly Cloudy 50 10.2 28 -2.2 42 42 W 7 11 29.83 1010 10 16 N/A
3:15 pm 15:15 Sunny 50 10.1 28 -2 43 43 SW 10 17 29.83 1010 10 16 N/A
3:35 pm 15:35 Sunny 51 10.5 29 -1.9 42 42 WSW 7 11 29.83 1010 10 16 N/A
3:55 pm 15:55 Sunny 50 10 27 -2.6 41 41 SW 9 15 29.83 1010 10 16 N/A
4:15 pm 16:15 Sunny 47 8.2 29 -1.5 51 51 WSW 10 17 29.85 1011 10 16 N/A
4:35 pm 16:35 Sunny 46 7.5 30 -1.2 54 54 WSW 8 13 29.85 1011 10 16 N/A
4:55 pm 16:55 Sunny 46 7.6 29 -1.5 53 53 WSW 8 13 29.85 1011 10 16 N/A
5:15 pm 17:15 Sunny 42 5.8 29 -1.9 58 58 WSW 6 9 29.85 1011 10 16 N/A
5:35 pm 17:35 Sunny 40 4.6 28 -2 63 63 WSW 5 7 29.88 1012 10 16 N/A
5:55 pm 17:55 Sunny 39 4.1 28 -2.4 63 63 WSW 7 11 29.88 1012 10 16 N/A
6:15 pm 18:15 Clear 38 3.2 28 -2.5 67 67 SW 7 11 29.88 1012 10 16 N/A
6:35 pm 18:35 Clear 37 2.5 27 -2.7 69 69 SW 8 13 29.88 1012 10 16 N/A
6:55 pm 18:55 Clear 37 2.9 27 -2.6 67 67 SSW 8 13 29.88 1012 10 16 N/A
7:15 pm 19:15 Clear 37 3 27 -2.6 67 67 SW 3 6 29.88 1012 10 16 N/A
7:35 pm 19:35 Clear 37 3 27 -2.7 67 67 N N/A 29.88 1012 10 16 N/A
7:55 pm 19:55 Clear 36 2.3 28 -2.5 71 71 SSW 3 6 29.88 1012 10 16 N/A
8:15 pm 20:15 Clear 36 2.2 27 -2.8 70 70 S 3 6 29.88 1012 10 16 N/A
8:35 pm 20:35 Clear 34 0.9 27 -3 75 75 SW 5 7 29.91 1013 10 16 N/A
8:55 pm 20:55 Clear 30 -1.1 25 -3.9 82 82 N 6 9 29.91 1013 10 16 N/A
9:15 pm 21:15 Clear 30 -1.2 25 -3.7 83 83 NW 5 7 29.91 1013 10 16 N/A
9:35 pm 21:35 Clear 29 -1.8 25 -4 85 85 WNW 5 7 29.94 1014 10 16 N/A
9:55 pm 21:55 Clear 29 -1.5 25 -3.8 85 85 W 8 13 29.91 1013 10 16 N/A
10:15 pm 22:15 Clear 31 -0.4 27 -2.9 83 83 WNW 7 11 29.94 1014 10 16 N/A
10:35 pm 22:35 Clear 32 0.1 28 -2.5 83 83 NW 8 13 29.94 1014 10 16 N/A
10:55 pm 22:55 Clear 34 1.1 28 -2.2 79 79 NW 10 17 29.94 1014 10 16 N/A
11:15 pm 23:15 Clear 34 1.1 29 -1.8 81 81 NW 8 13 29.94 1014 10 16 N/A
11:35 pm 23:35 Partly Cloudy 34 1 28 -2 81 81 NNW 8 13 29.97 1015 10 16 N/A
11:55 pm 23:55 Partly Cloudy 33 0.5 28 -2.3 82 82 NNW 9 15 29.97 1015 10 16 N/A

Powered by AerisWeather